Weather History for Sarasota, FL

Change the Weather History Date:

Monday, August 18, 2014

  Actual Average Record
Temperature  
Mean Temperature 85 °F 82 °F  
Max Temperature 93 °F 90 °F 96 °F (1995)
Min Temperature 77 °F 74 °F 67 °F (1927)
Degree Days  
Heating Degree Days 0 0  
Month to date heating degree days 0 0  
Since 1 June heating degree days 0 0  
Since 1 July heating degree days 0 0  
Cooling Degree Days 20 17  
Month to date cooling degree days 362 306  
Year to date cooling degree days 2281 2068  
Since 1 June cooling degree days 1469 1317  
Growing Degree Days 34 (Base 50)    
Moisture  
Dew Point 75 °F    
Average Humidity 70    
Maximum Humidity 91    
Minimum Humidity 56    
Precipitation  
Precipitation 0.00 in 0.32 in 1.28 in (1997)
Month to date precipitation 1.33 5.27  
Year to date precipitation 28.84 34.46  
Sea Level Pressure  
Sea Level Pressure 30.03 in    
Wind  
Wind Speed 5 mph (West)    
Max Wind Speed 12 mph    
Max Gust Speed 15 mph    
Visibility 10 miles    
Events Thunderstorm    
T = Trace of Precipitation, MM = Missing Value Source: NWS Daily Summary

Daily Weather History Graph

Daily Weather History Graph

Search for Another Location

Airport:

Trip Planner

Search our weather history database for the weather conditions in past years. The results will help you decide how hot, cold, wet, or windy it might be!

Date:

Astronomy

Aug. 18, 2014 Rise Set
Actual Time 7:02 AM EDT 8:05 PM EDT
Civil Twilight 6:38 AM EDT 8:29 PM EDT
Nautical Twilight 6:09 AM EDT 8:58 PM EDT
Astronomical Twilight 5:40 AM EDT 9:27 PM EDT
Moon 1:15 AM EDT (8/18) 2:59 PM EDT (8/18)
Length of Visible Light 13h 50m
Length of Day
13h 02m
Last Quarter, 38% of the Moon is Illuminated
Aug 18
Last Quarter
Aug 25
New
Sep 2
First Quarter
Sep 8
Full
Sep 15
Last Quarter

Hourly Weather History & Observations

Time (EDT) Temp. Heat Index Dew Point Humidity Pressure Visibility Wind Dir Wind Speed Gust Speed Precip Events Conditions
12:53 AM 81.0 °F 87.3 °F 75.9 °F 85% 30.07 in 10.0 mi East 3.5 mph - N/A   Clear
1:53 AM 80.1 °F 85.4 °F 75.9 °F 87% 30.06 in 10.0 mi Calm Calm - N/A   Clear
2:53 AM 79.0 °F - 75.0 °F 88% 30.04 in 10.0 mi SE 4.6 mph - N/A   Clear
3:53 AM 79.0 °F - 75.9 °F 90% 30.02 in 10.0 mi Calm Calm - N/A   Clear
4:53 AM 78.1 °F - 75.0 °F 90% 30.02 in 10.0 mi East 3.5 mph - N/A   Clear
5:53 AM 78.1 °F - 75.0 °F 90% 30.02 in 10.0 mi Calm Calm - N/A   Clear
6:53 AM 77.0 °F - 73.9 °F 90% 30.03 in 10.0 mi Calm Calm - N/A   Clear
7:53 AM 80.1 °F 85.4 °F 75.9 °F 87% 30.04 in 10.0 mi East 3.5 mph - N/A   Clear
8:53 AM 84.0 °F 92.6 °F 75.9 °F 76% 30.06 in 10.0 mi East 4.6 mph - N/A   Clear
9:53 AM 88.0 °F 100.2 °F 77.0 °F 70% 30.06 in 10.0 mi ESE 4.6 mph - N/A   Clear
10:40 AM 90.0 °F 101.3 °F 75.9 °F 63% 30.06 in 10.0 mi SSE 4.6 mph - N/A   Mostly Cloudy
10:53 AM 89.1 °F 99.1 °F 75.0 °F 63% 30.06 in 10.0 mi NNW 4.6 mph - N/A   Mostly Cloudy
11:00 AM 88.0 °F 97.5 °F 75.0 °F 65% 30.06 in 10.0 mi Calm Calm - N/A   Mostly Cloudy
11:13 AM 89.1 °F 99.1 °F 75.0 °F 63% 30.06 in 10.0 mi Variable 3.5 mph - N/A   Scattered Clouds
11:53 AM 91.0 °F 100.4 °F 73.9 °F 57% 30.06 in 10.0 mi SW 6.9 mph - N/A   Clear
12:53 PM 91.0 °F 101.6 °F 75.0 °F 59% 30.05 in 10.0 mi West 5.8 mph - N/A   Clear
1:17 PM 91.0 °F 99.3 °F 73.0 °F 55% 30.04 in 10.0 mi WSW 9.2 mph - N/A Thunderstorm Clear
1:32 PM 91.0 °F 100.4 °F 73.9 °F 57% 30.04 in 10.0 mi West 9.2 mph - N/A   Clear
1:53 PM 91.0 °F 101.6 °F 75.0 °F 59% 30.03 in 10.0 mi West 8.1 mph - N/A   Clear
2:53 PM 91.9 °F 103.9 °F 75.9 °F 59% 30.02 in 10.0 mi West 9.2 mph - N/A   Clear
3:53 PM 91.9 °F 103.2 °F 75.0 °F 58% 30.00 in 10.0 mi West 10.4 mph - N/A   Clear
4:53 PM 90.0 °F 101.3 °F 75.9 °F 63% 29.99 in 10.0 mi WNW 9.2 mph - N/A   Clear
5:53 PM 90.0 °F 99.0 °F 73.9 °F 59% 29.99 in 10.0 mi WNW 9.2 mph - N/A   Clear
6:53 PM 89.1 °F 97.0 °F 73.0 °F 59% 29.99 in 10.0 mi WNW 9.2 mph - N/A   Clear
7:53 PM 86.0 °F 93.8 °F 73.9 °F 67% 29.99 in 10.0 mi NW 6.9 mph - N/A   Clear
8:53 PM 84.9 °F 91.4 °F 73.0 °F 67% 30.00 in 10.0 mi WNW 4.6 mph - N/A   Clear
9:53 PM 84.0 °F 91.2 °F 73.9 °F 72% 30.00 in 10.0 mi NW 3.5 mph - N/A   Clear
10:53 PM 82.0 °F 87.9 °F 73.9 °F 76% 29.99 in 10.0 mi NW 4.6 mph - N/A   Clear